When you browse on this site, cookies collect data to enhance your experience and personalize the content and advertising you see.
Visit our Privacy Policy to learn more. By continuing to use the site, you agree to this use of cookies and data.
  • In Switzerland
  • List of Countries
  • For 7 days
  • Water Temperature
  • Satellite Maps
  • Weather Map
  • Weather Widgets
  • user-avatar
    Login

    Hourly Weather Prutz

    Today, 22 March, Friday

    Time Temperature Precipitation Wind Pressure Humidity
    00:00 -2°C° 0 mm 3 mps 639 mmHg 45%
    01:00 -1°C° 0 mm 3 mps 639 mmHg 36%
    02:00 -1°C° 0 mm 3 mps 639 mmHg 39%
    03:00 -2°C° 0 mm 3 mps 639 mmHg 42%
    04:00 -2°C° 0 mm 3 mps 639 mmHg 45%
    05:00 -2°C° 0 mm 3 mps 639 mmHg 45%
    06:00 -1°C° 0 mm 3 mps 639 mmHg 45%
    07:00 -1°C° 0 mm 3 mps 639 mmHg 47%
    08:00 +3°C° 0 mm 2 mps 640 mmHg 61%
    09:00 +5°C° 0 mm 2 mps 640 mmHg 75%
    10:00 +7°C° 0 mm 2 mps 640 mmHg 89%
    11:00 +8°C° 0 mm 1 mps 640 mmHg 88%
    12:00 +9°C° 0 mm 1 mps 640 mmHg 87%
    13:00 +10°C° 0 mm 1 mps 640 mmHg 86%
    14:00 +9°C° 0 mm 1 mps 640 mmHg 87%
    15:00 +8°C° 0 mm 0 mps 640 mmHg 88%
    16:00 +8°C° 0 mm 0 mps 639 mmHg 88%
    17:00 +7°C° 0 mm 1 mps 639 mmHg 86%
    18:00 +5°C° 0 mm 1 mps 638 mmHg 84%
    19:00 +3°C° 0 mm 1 mps 638 mmHg 82%
    20:00 +3°C° 0 mm 1 mps 638 mmHg 76%
    21:00 +2°C° 0 mm 2 mps 638 mmHg 70%
    22:00 +1°C° 0 mm 2 mps 638 mmHg 63%
    23:00 +1°C° 0 mm 2 mps 638 mmHg 61%

    Tomorrow, 23 March, Saturday

    Time Temperature Precipitation Wind Pressure Humidity
    00:00 +2°C° 0 mm 1 mps 638 mmHg 58%
    01:00 +2°C° 0 mm 1 mps 638 mmHg 56%
    02:00 +1°C° 0 mm 1 mps 638 mmHg 57%
    03:00 +1°C° 0 mm 1 mps 637 mmHg 58%
    04:00 +1°C° 0 mm 1 mps 637 mmHg 59%
    05:00 +1°C° 0 mm 1 mps 637 mmHg 60%
    06:00 +1°C° 0 mm 1 mps 638 mmHg 61%
    07:00 +2°C° 0 mm 1 mps 638 mmHg 62%
    08:00 +4°C° 0 mm 1 mps 638 mmHg 68%
    09:00 +6°C° 0 mm 1 mps 639 mmHg 73%
    10:00 +8°C° 0 mm 1 mps 639 mmHg 78%
    11:00 +9°C° 0 mm 1 mps 639 mmHg 77%
    12:00 +8°C° 0 mm 0 mps 639 mmHg 76%
    13:00 +9°C° 0 mm 0 mps 639 mmHg 75%
    14:00 +9°C° 0 mm 1 mps 639 mmHg 77%
    15:00 +9°C° 0 mm 1 mps 638 mmHg 79%
    16:00 +9°C° 0 mm 1 mps 638 mmHg 81%
    17:00 +7°C° 0 mm 1 mps 637 mmHg 83%
    18:00 +5°C° 0 mm 1 mps 637 mmHg 86%
    19:00 +2°C° 0 mm 0 mps 636 mmHg 88%
    20:00 +3°C° 0 mm 1 mps 636 mmHg 86%
    21:00 +2°C° 0 mm 1 mps 637 mmHg 84%
    22:00 +2°C° 0 mm 1 mps 637 mmHg 82%
    23:00 +2°C° 0 mm 1 mps 637 mmHg 78%

    Day after tomorrow, 24 March, Sunday

    Time Temperature Precipitation Wind Pressure Humidity
    00:00 +1°C° 0 mm 2 mps 637 mmHg 74%
    01:00 +1°C° 0 mm 2 mps 637 mmHg 70%
    02:00 +1°C° 0 mm 2 mps 637 mmHg 67%
    03:00 +1°C° 0 mm 2 mps 636 mmHg 64%
    04:00 +1°C° 0 mm 2 mps 636 mmHg 60%
    05:00 +1°C° 0 mm 2 mps 636 mmHg 60%
    06:00 +1°C° 0 mm 2 mps 636 mmHg 59%
    07:00 +1°C° 0 mm 2 mps 636 mmHg 58%
    08:00 +4°C° 0 mm 1 mps 637 mmHg 63%
    09:00 +6°C° 0 mm 1 mps 637 mmHg 68%
    10:00 +8°C° 0 mm 1 mps 638 mmHg 73%
    11:00 +9°C° 0 mm 1 mps 638 mmHg 74%
    12:00 +9°C° 0 mm 1 mps 637 mmHg 74%
    13:00 +9°C° 0 mm 1 mps 637 mmHg 75%
    14:00 +9°C° 0 mm 1 mps 637 mmHg 78%
    15:00 +9°C° 0 mm 1 mps 636 mmHg 81%
    16:00 +7°C° 0 mm 2 mps 636 mmHg 83%
    17:00 +7°C° 0 mm 1 mps 636 mmHg 88%
    18:00 +5°C° 0 mm 1 mps 636 mmHg 92%
    19:00 +4°C° 0 mm 1 mps 635 mmHg 97%
    20:00 +4°C° 0 mm 1 mps 636 mmHg 97%
    21:00 +4°C° 0 mm 1 mps 636 mmHg 97%
    22:00 +4°C° 0 mm 1 mps 636 mmHg 97%
    23:00 +3°C° 0 mm 1 mps 636 mmHg 97%

    25 March, Monday

    Time Temperature Precipitation Wind Pressure Humidity
    00:00 +3°C° 0 mm 1 mps 636 mmHg 97%
    01:00 +3°C° 0 mm 1 mps 636 mmHg 97%
    02:00 +2°C° 0 mm 1 mps 635 mmHg 95%
    03:00 +1°C° 0 mm 1 mps 635 mmHg 94%
    04:00 0°C° 0 mm 1 mps 634 mmHg 92%
    05:00 +1°C° 0 mm 1 mps 635 mmHg 92%
    06:00 +1°C° 0 mm 1 mps 635 mmHg 91%
    07:00 +2°C° 0 mm 1 mps 635 mmHg 91%
    08:00 +3°C° 0 mm 1 mps 635 mmHg 90%
    09:00 +3°C° 0 mm 2 mps 636 mmHg 89%
    10:00 +4°C° 0 mm 2 mps 636 mmHg 87%
    11:00 +4°C° 0.1 mm 2 mps 636 mmHg 87%
    12:00 +4°C° 0.1 mm 2 mps 635 mmHg 86%
    13:00 +4°C° 0.1 mm 2 mps 635 mmHg 85%
    14:00 +3°C° 0.1 mm 3 mps 635 mmHg 85%
    15:00 +3°C° 0.1 mm 3 mps 635 mmHg 86%
    16:00 +2°C° 0.1 mm 3 mps 634 mmHg 86%
    17:00 +1°C° 0.2 mm 3 mps 634 mmHg 89%
    18:00 0°C° 0.2 mm 3 mps 634 mmHg 92%
    19:00 -1°C° 0.2 mm 3 mps 634 mmHg 95%
    20:00 -1°C° 0.2 mm 3 mps 635 mmHg 95%
    21:00 -2°C° 0.2 mm 3 mps 635 mmHg 95%
    22:00 -2°C° 0.2 mm 3 mps 636 mmHg 95%
    23:00 -4°C° 0.1 mm 3 mps 636 mmHg 94%

    26 March, Tuesday

    Time Temperature Precipitation Wind Pressure Humidity
    00:00 -4°C° 0.1 mm 3 mps 636 mmHg 94%
    01:00 -5°C° 0.1 mm 3 mps 636 mmHg 94%
    02:00 -5°C° 0.1 mm 3 mps 637 mmHg 94%
    03:00 -5°C° 0.1 mm 2 mps 637 mmHg 93%
    04:00 -5°C° 0.1 mm 2 mps 637 mmHg 93%
    05:00 -6°C° 0 mm 2 mps 637 mmHg 91%
    06:00 -6°C° 0 mm 2 mps 637 mmHg 89%
    07:00 -7°C° 0 mm 2 mps 637 mmHg 86%
    08:00 -5°C° 0 mm 2 mps 638 mmHg 74%
    09:00 -4°C° 0 mm 2 mps 639 mmHg 61%
    10:00 -2°C° 0 mm 2 mps 639 mmHg 48%
    11:00 -1°C° 0 mm 2 mps 639 mmHg 49%
    12:00 +1°C° 0 mm 2 mps 639 mmHg 49%
    13:00 +2°C° 0 mm 2 mps 639 mmHg 49%
    14:00 +2°C° 0 mm 2 mps 639 mmHg 51%
    15:00 +2°C° 0 mm 2 mps 639 mmHg 53%
    16:00 +2°C° 0 mm 2 mps 639 mmHg 55%
    17:00 -1°C° 0 mm 2 mps 638 mmHg 64%
    18:00 -3°C° 0 mm 2 mps 638 mmHg 72%
    19:00 -3°C° 0 mm 1 mps 638 mmHg 80%
    20:00 -3°C° 0 mm 1 mps 638 mmHg 75%
    21:00 -4°C° 0 mm 1 mps 639 mmHg 70%
    22:00 -4°C° 0 mm 1 mps 639 mmHg 66%
    23:00 -4°C° 0 mm 1 mps 639 mmHg 57%

    27 March, Wednesday

    Time Temperature Precipitation Wind Pressure Humidity
    00:00 -4°C° 0 mm 1 mps 639 mmHg 48%
    01:00 -3°C° 0 mm 1 mps 639 mmHg 39%
    02:00 -3°C° 0 mm 1 mps 639 mmHg 36%
    03:00 -3°C° 0 mm 1 mps 639 mmHg 32%
    04:00 -3°C° 0 mm 1 mps 639 mmHg 28%
    05:00 -3°C° 0 mm 1 mps 639 mmHg 29%
    06:00 -2°C° 0 mm 1 mps 639 mmHg 30%
    07:00 -2°C° 0 mm 1 mps 639 mmHg 31%
    08:00 +1°C° 0 mm 1 mps 640 mmHg 37%
    09:00 +2°C° 0 mm 2 mps 641 mmHg 42%
    10:00 +4°C° 0 mm 2 mps 641 mmHg 47%
    11:00 +5°C° 0 mm 2 mps 641 mmHg 50%
    12:00 +5°C° 0 mm 2 mps 641 mmHg 52%
    13:00 +5°C° 0 mm 2 mps 641 mmHg 55%
    14:00 +5°C° 0 mm 2 mps 640 mmHg 57%
    15:00 +5°C° 0 mm 2 mps 640 mmHg 59%
    16:00 +5°C° 0 mm 2 mps 640 mmHg 60%
    17:00 +3°C° 0 mm 2 mps 640 mmHg 64%
    18:00 +2°C° 0 mm 1 mps 639 mmHg 68%
    19:00 0°C° 0 mm 1 mps 639 mmHg 73%
    20:00 0°C° 0 mm 1 mps 639 mmHg 72%
    21:00 -1°C° 0 mm 1 mps 640 mmHg 72%
    22:00 -1°C° 0 mm 1 mps 640 mmHg 71%
    23:00 -1°C° 0 mm 1 mps 640 mmHg 69%
    Show more